Location: Unspecified
(41.5516°N, 88.1098°W)
Time: 18:46:35
(UTC-05:00)

Hubble Space Telescope - Visible Passes

Search period start: 16 August 2017 00:00
Search period end: 26 August 2017 00:00
Orbit: 538 x 542 km, 28.5° (Epoch: 16 August)

Date Brightness Start Highest point End Pass type
(mag) Time Alt. Az. Time Alt. Az. Time Alt. Az.
21 Aug 2.9 05:30:19 10° SSW 05:31:59 12° S 05:33:38 10° SSE visible
22 Aug 3.0 05:20:27 10° SSW 05:21:44 11° S 05:23:01 10° S visible
23 Aug 3.0 05:11:04 10° SSW 05:11:29 10° SSW 05:11:54 10° S visible
